When you browse on this site, cookies collect data to enhance your experience and personalize the content and advertising you see.
Visit our Privacy Policy to learn more. By continuing to use the site, you agree to this use of cookies and data.
  • In Hungary
  • List of Countries
  • For 7 days
  • Water Temperature
  • Satellite Maps
  • Weather Map
  • News
  • Weather Widgets
  • user-avatar
    Login

    Hourly Weather Charneca

    Today, 21 July, Sunday

    Time Temperature Precipitation Wind Pressure Humidity
    00:00 +17°C° 0 mm 5 mps 758 mmHg 79%
    01:00 +17°C° 0 mm 5 mps 758 mmHg 81%
    02:00 +17°C° 0 mm 6 mps 758 mmHg 83%
    03:00 +17°C° 0 mm 5 mps 758 mmHg 84%
    04:00 +17°C° 0 mm 5 mps 758 mmHg 84%
    05:00 +18°C° 0 mm 4 mps 758 mmHg 85%
    06:00 +19°C° 0 mm 4 mps 758 mmHg 76%
    07:00 +21°C° 0 mm 5 mps 758 mmHg 67%
    08:00 +23°C° 0 mm 5 mps 758 mmHg 58%
    09:00 +26°C° 0 mm 5 mps 758 mmHg 52%
    10:00 +28°C° 0 mm 5 mps 758 mmHg 45%
    11:00 +30°C° 0 mm 5 mps 758 mmHg 36%
    12:00 +32°C° 0 mm 6 mps 758 mmHg 37%
    13:00 +32°C° 0 mm 7 mps 757 mmHg 38%
    14:00 +32°C° 0 mm 8 mps 757 mmHg 38%
    15:00 +29°C° 0 mm 8 mps 757 mmHg 42%
    16:00 +28°C° 0 mm 8 mps 757 mmHg 45%
    17:00 +27°C° 0 mm 8 mps 757 mmHg 48%
    18:00 +24°C° 0 mm 7 mps 757 mmHg 54%
    19:00 +22°C° 0 mm 6 mps 757 mmHg 60%
    20:00 +20°C° 0 mm 5 mps 758 mmHg 66%
    21:00 +20°C° 0 mm 5 mps 758 mmHg 70%
    22:00 +19°C° 0 mm 5 mps 758 mmHg 73%
    23:00 +17°C° 0 mm 5 mps 758 mmHg 77%

    Tomorrow, 22 July, Monday

    Time Temperature Precipitation Wind Pressure Humidity
    00:00 +18°C° 0 mm 4 mps 758 mmHg 79%
    01:00 +18°C° 0 mm 3 mps 757 mmHg 81%
    02:00 +18°C° 0 mm 2 mps 757 mmHg 83%
    03:00 +18°C° 0 mm 2 mps 757 mmHg 84%
    04:00 +18°C° 0 mm 2 mps 757 mmHg 85%
    05:00 +18°C° 0 mm 2 mps 757 mmHg 86%
    06:00 +20°C° 0 mm 2 mps 757 mmHg 76%
    07:00 +24°C° 0 mm 2 mps 757 mmHg 67%
    08:00 +26°C° 0 mm 2 mps 757 mmHg 58%
    09:00 +28°C° 0 mm 3 mps 757 mmHg 52%
    10:00 +29°C° 0 mm 3 mps 757 mmHg 46%
    11:00 +32°C° 0 mm 4 mps 757 mmHg 40%
    12:00 +33°C° 0 mm 4 mps 757 mmHg 38%
    13:00 +33°C° 0 mm 5 mps 756 mmHg 37%
    14:00 +34°C° 0 mm 5 mps 756 mmHg 35%
    15:00 +33°C° 0 mm 6 mps 756 mmHg 39%
    16:00 +30°C° 0 mm 6 mps 756 mmHg 43%
    17:00 +29°C° 0 mm 6 mps 755 mmHg 47%
    18:00 +27°C° 0 mm 6 mps 756 mmHg 56%
    19:00 +24°C° 0 mm 6 mps 756 mmHg 66%
    20:00 +22°C° 0 mm 6 mps 756 mmHg 75%
    21:00 +21°C° 0 mm 5 mps 756 mmHg 78%
    22:00 +20°C° 0 mm 4 mps 756 mmHg 82%
    23:00 +20°C° 0 mm 3 mps 756 mmHg 86%

    Day after tomorrow, 23 July, Tuesday

    Time Temperature Precipitation Wind Pressure Humidity
    00:00 +19°C° 0 mm 3 mps 756 mmHg 87%
    01:00 +19°C° 0 mm 3 mps 756 mmHg 87%
    02:00 +19°C° 0 mm 3 mps 755 mmHg 88%
    03:00 +19°C° 0 mm 3 mps 755 mmHg 89%
    04:00 +19°C° 0 mm 3 mps 755 mmHg 89%
    05:00 +19°C° 0 mm 4 mps 755 mmHg 90%
    06:00 +20°C° 0 mm 3 mps 755 mmHg 81%
    07:00 +22°C° 0 mm 3 mps 756 mmHg 73%
    08:00 +25°C° 0 mm 3 mps 756 mmHg 65%
    09:00 +27°C° 0 mm 3 mps 756 mmHg 57%
    10:00 +29°C° 0 mm 4 mps 756 mmHg 49%
    11:00 +32°C° 0 mm 5 mps 756 mmHg 41%
    12:00 +32°C° 0 mm 6 mps 756 mmHg 40%
    13:00 +32°C° 0 mm 6 mps 755 mmHg 40%
    14:00 +32°C° 0 mm 7 mps 755 mmHg 39%
    15:00 +30°C° 0 mm 7 mps 755 mmHg 41%
    16:00 +29°C° 0 mm 7 mps 755 mmHg 44%
    17:00 +28°C° 0 mm 7 mps 755 mmHg 47%
    18:00 +26°C° 0 mm 6 mps 755 mmHg 52%
    19:00 +23°C° 0 mm 6 mps 755 mmHg 58%
    20:00 +22°C° 0 mm 6 mps 755 mmHg 64%
    21:00 +21°C° 0 mm 5 mps 755 mmHg 68%
    22:00 +20°C° 0 mm 4 mps 755 mmHg 71%
    23:00 +20°C° 0 mm 3 mps 755 mmHg 74%

    24 July, Wednesday

    Time Temperature Precipitation Wind Pressure Humidity
    00:00 +19°C° 0 mm 3 mps 755 mmHg 76%
    01:00 +19°C° 0 mm 2 mps 754 mmHg 78%
    02:00 +19°C° 0 mm 2 mps 754 mmHg 80%
    03:00 +19°C° 0 mm 2 mps 754 mmHg 80%
    04:00 +18°C° 0 mm 2 mps 754 mmHg 80%
    05:00 +19°C° 0 mm 1 mps 754 mmHg 80%
    06:00 +21°C° 0 mm 2 mps 754 mmHg 69%
    07:00 +24°C° 0 mm 2 mps 754 mmHg 59%
    08:00 +27°C° 0 mm 2 mps 754 mmHg 48%
    09:00 +29°C° 0 mm 3 mps 754 mmHg 42%
    10:00 +31°C° 0 mm 3 mps 754 mmHg 36%
    11:00 +34°C° 0 mm 3 mps 754 mmHg 30%
    12:00 +34°C° 0 mm 4 mps 753 mmHg 30%
    13:00 +34°C° 0 mm 4 mps 753 mmHg 29%
    14:00 +34°C° 0 mm 5 mps 753 mmHg 28%
    15:00 +32°C° 0 mm 5 mps 753 mmHg 36%
    16:00 +29°C° 0 mm 5 mps 753 mmHg 44%
    17:00 +27°C° 0 mm 6 mps 752 mmHg 53%
    18:00 +26°C° 0 mm 5 mps 753 mmHg 63%
    19:00 +23°C° 0 mm 4 mps 753 mmHg 74%
    20:00 +21°C° 0 mm 3 mps 754 mmHg 85%
    21:00 +21°C° 0 mm 3 mps 753 mmHg 86%
    22:00 +21°C° 0 mm 2 mps 753 mmHg 88%
    23:00 +21°C° 0 mm 1 mps 753 mmHg 90%

    25 July, Thursday

    Time Temperature Precipitation Wind Pressure Humidity
    00:00 +20°C° 0 mm 2 mps 753 mmHg 90%
    01:00 +20°C° 0 mm 2 mps 753 mmHg 91%
    02:00 +20°C° 0 mm 2 mps 753 mmHg 92%
    03:00 +20°C° 0 mm 2 mps 753 mmHg 92%
    04:00 +20°C° 0 mm 2 mps 754 mmHg 91%
    05:00 +21°C° 0 mm 2 mps 754 mmHg 91%
    06:00 +23°C° 0 mm 2 mps 754 mmHg 83%
    07:00 +24°C° 0 mm 2 mps 754 mmHg 74%
    08:00 +25°C° 0 mm 2 mps 755 mmHg 66%
    09:00 +26°C° 0 mm 3 mps 755 mmHg 66%
    10:00 +26°C° 0 mm 4 mps 755 mmHg 67%
    11:00 +27°C° 0 mm 4 mps 755 mmHg 67%
    12:00 +27°C° 0 mm 5 mps 755 mmHg 62%
    13:00 +27°C° 0 mm 5 mps 755 mmHg 58%
    14:00 +28°C° 0 mm 6 mps 755 mmHg 53%
    15:00 +27°C° 0 mm 6 mps 755 mmHg 53%
    16:00 +26°C° 0 mm 6 mps 755 mmHg 53%
    17:00 +24°C° 0 mm 7 mps 756 mmHg 54%
    18:00 +23°C° 0 mm 6 mps 756 mmHg 61%
    19:00 +21°C° 0 mm 6 mps 757 mmHg 68%
    20:00 +20°C° 0 mm 5 mps 757 mmHg 75%
    21:00 +19°C° 0 mm 5 mps 757 mmHg 79%
    22:00 +19°C° 0 mm 5 mps 757 mmHg 82%
    23:00 +19°C° 0 mm 5 mps 757 mmHg 86%

    26 July, Friday

    Time Temperature Precipitation Wind Pressure Humidity
    00:00 +17°C° 0 mm 5 mps 757 mmHg 86%
    01:00 +17°C° 0 mm 5 mps 757 mmHg 86%
    02:00 +17°C° 0 mm 5 mps 757 mmHg 87%
    03:00 +17°C° 0 mm 5 mps 757 mmHg 87%
    04:00 +18°C° 0 mm 4 mps 757 mmHg 86%
    05:00 +17°C° 0 mm 4 mps 758 mmHg 86%
    06:00 +19°C° 0 mm 4 mps 758 mmHg 78%
    07:00 +20°C° 0 mm 5 mps 758 mmHg 69%
    08:00 +22°C° 0 mm 5 mps 759 mmHg 61%
    09:00 +23°C° 0 mm 6 mps 759 mmHg 56%
    10:00 +24°C° 0 mm 7 mps 759 mmHg 50%
    11:00 +26°C° 0 mm 7 mps 758 mmHg 45%
    12:00 +26°C° 0 mm 8 mps 758 mmHg 45%
    13:00 +26°C° 0 mm 8 mps 758 mmHg 44%
    14:00 +27°C° 0 mm 8 mps 758 mmHg 44%
    15:00 +26°C° 0 mm 8 mps 758 mmHg 47%
    16:00 +24°C° 0 mm 8 mps 758 mmHg 50%
    17:00 +23°C° 0 mm 8 mps 758 mmHg 53%
    18:00 +21°C° 0 mm 8 mps 758 mmHg 59%
    19:00 +20°C° 0 mm 8 mps 758 mmHg 66%
    20:00 +18°C° 0 mm 7 mps 759 mmHg 72%
    21:00 +17°C° 0 mm 7 mps 759 mmHg 73%
    22:00 +17°C° 0 mm 7 mps 759 mmHg 74%
    23:00 +17°C° 0 mm 7 mps 759 mmHg 75%
    Show more